EHI
8 9 10 11 11 7 6 7 7 5 3 5 6 3 1 1 1 2 4 4 1 0 0 0 0 0 0 0 0 0 0 0 0 0 0 0 0 0
12 11 10 8 7 6 7 9 10 8 6 7 6 4 3 2 2 3 4 3 1 0 0 0 0 0 0 0 0 0 0 0 0 0 0 0 0 0
13 11 8 7 6 7 9 11 13 13 10 8 6 6 6 5 4 3 2 1 1 0 0 0 0 0 0 0 0 0 0 0 0 0 0 0 0 0
8 7 6 8 9 10 11 12 14 15 13 10 8 9 10 8 6 3 1 1 1 0 0 0 0 0 0 0 0 0 0 0 0 0 0 0 0 0
5 6 6 8 10 11 11 11 10 11 12 11 11 12 10 8 6 4 2 2 2 0 0 0 0 0 0 0 0 0 0 0 0 0 0 0 0 0
6 6 6 7 7 7 7 7 6 6 8 10 10 10 8 7 6 5 4 4 3 1 1 1 0 0 0 0 0 0 0 0 0 0 0 0 0 0
8 7 6 4 3 3 3 4 3 3 5 7 7 6 5 5 5 4 4 4 3 2 2 2 1 1 0 0 0 0 0 0 0 0 0 0 0 0
10 8 5 3 2 1 1 1 1 1 2 4 5 4 4 3 2 2 3 3 3 3 3 3 3 3 1 0 0 0 0 0 0 0 0 0 0 0
11 9 6 3 2 2 2 2 1 1 1 3 4 4 3 2 1 1 1 1 2 3 3 3 3 3 2 0 0 0 0 0 0 0 0 0 0 0
9 7 5 4 3 3 4 4 4 3 2 2 3 3 3 2 1 0 0 0 1 2 2 2 2 2 1 0 0 0 0 0 0 0 0 0 0 0
6 4 2 2 1 1 3 6 5 3 2 1 1 1 1 1 0 0 0 0 0 0 1 1 1 3 2 1 0 0 0 0 0 0 0 0 0 0
3 2 1 0 0 0 2 5 5 3 2 1 1 0 0 0 0 0 0 0 0 0 1 0 1 2 2 1 0 0 0 0 0 0 0 0 0 0
3 2 1 0 0 0 1 2 2 2 3 3 2 1 1 0 0 0 0 0 0 0 0 0 0 1 1 0 0 0 0 0 0 0 0 0 0 0
3 2 1 0 0 0 0 0 0 1 3 3 3 2 2 1 0 0 0 0 0 0 0 0 0 0 0 0 0 0 1 1 0 0 0 0 0 0
2 1 0 0 0 0 0 0 0 0 1 1 1 1 1 1 1 1 1 1 0 0 0 0 0 0 0 0 0 0 1 2 1 1 0 0 0 0
1 1 1 0 0 0 0 0 0 0 0 0 0 1 1 1 2 2 1 0 0 0 0 0 0 0 0 0 0 0 1 2 3 2 1 1 1 1
1 3 2 1 0 1 1 1 0 0 0 0 1 2 2 2 2 1 0 0 0 0 0 0 0 0 0 0 0 0 1 2 2 2 1 1 0 0
1 2 3 2 1 2 2 2 1 0 0 0 1 2 3 3 2 1 0 0 0 0 0 0 0 0 0 0 0 0 0 1 1 1 1 0 0 0
0 1 1 2 2 2 3 3 2 1 1 1 1 2 3 3 3 1 0 0 0 0 0 0 0 0 0 0 0 0 0 0 0 0 0 0 0 0
0 0 0 1 2 3 3 3 2 2 2 1 0 1 2 2 3 2 1 0 0 0 0 0 0 0 0 0 0 0 0 0 0 0 0 0 0 0
0 0 0 0 1 2 3 3 3 3 3 1 1 2 2 2 2 3 2 1 0 0 0 0 0 0 0 0 0 0 0 0 0 0 0 0 0 0
0 0 0 0 0 1 2 3 3 3 3 2 1 2 2 1 1 2 2 1 0 0 0 0 0 0 0 0 0 0 0 0 0 0 0 0 0 0
0 0 0 0 0 0 1 3 3 3 3 2 1 1 1 0 0 1 1 1 0 0 0 0 0 0 0 0 0 0 0 0 0 0 0 0 0 0
Wind_Speed
4 4 4 3 3 3 3 4 4 4 3 1 1 1 1 0 2 1 1 4 4 3 2 1 1 1 2 3 4 5 6 7 7 9 9 10 10 11
3 3 4 3 3 3 3 4 4 4 4 1 1 0 0 1 2 1 2 5 5 4 3 2 1 1 1 1 1 3 4 4 5 5 6 6 7 9
3 3 4 4 3 3 3 3 3 3 3 2 1 1 1 1 1 1 1 1 3 6 4 4 3 3 3 2 2 1 1 2 2 3 4 4 5 5
3 3 3 3 3 3 3 3 2 2 3 2 1 1 0 0 1 1 1 1 2 8 7 6 5 4 4 4 4 3 2 1 1 1 2 2 3 4
1 1 2 2 2 2 2 2 2 1 1 1 1 1 1 0 1 1 2 1 1 5 7 6 6 5 5 5 4 3 3 2 2 2 2 2 2 3
0 1 1 1 2 1 1 1 1 0 1 1 1 1 1 1 0 0 1 1 1 2 3 3 6 6 5 5 4 4 3 3 3 3 2 2 2 2
1 2 2 5 7 5 3 2 1 0 0 0 0 1 1 1 0 0 1 1 2 1 1 1 2 2 3 4 5 5 4 3 3 3 4 3 3 3
2 2 3 4 5 6 6 6 5 2 2 1 1 1 1 1 1 1 0 1 0 1 1 1 1 2 2 3 6 6 5 5 5 4 4 4 4 4
2 2 1 3 3 3 4 4 5 5 4 2 2 2 2 2 2 1 1 1 1 1 1 1 1 2 2 5 8 7 6 5 5 4 4 3 3 3
2 2 2 2 2 1 2 4 4 5 4 3 3 3 3 3 2 1 0 1 1 1 1 1 1 1 1 3 8 6 5 4 4 4 3 2 2 2
3 3 2 3 3 2 2 3 4 4 7 8 7 5 6 5 4 1 1 1 1 2 1 1 0 0 0 2 5 6 4 4 3 2 2 2 1 1
3 4 5 4 4 2 2 2 3 3 3 4 4 3 3 4 3 2 2 1 1 1 2 1 1 1 0 1 1 1 2 4 3 2 1 1 3 3
3 3 4 6 6 4 2 2 2 1 2 3 3 3 3 3 4 3 3 3 2 2 3 2 2 2 2 1 1 1 1 1 0 1 1 1 2 3
2 3 5 6 6 4 3 3 1 1 2 2 2 2 3 3 3 4 4 4 3 3 3 3 2 2 2 2 2 2 2 2 2 2 2 1 0 1
4 6 5 6 6 5 4 1 0 1 2 2 3 3 3 3 2 2 3 2 2 2 3 3 3 2 3 3 2 2 3 2 2 3 3 3 2 1
5 6 7 5 4 4 4 2 2 3 2 3 3 3 2 2 2 1 1 1 1 2 3 3 3 3 3 3 3 3 3 3 3 3 4 3 3 2
4 4 4 4 3 3 3 3 3 2 2 2 3 2 2 2 2 2 2 1 1 2 2 1 1 1 2 3 3 3 3 3 3 3 5 4 3 2
2 3 3 2 2 3 3 3 3 2 2 2 2 2 2 2 2 2 2 2 2 2 2 2 2 1 1 1 3 4 4 4 3 4 5 5 4 3
3 3 2 2 2 2 2 2 2 2 2 1 2 1 1 1 1 1 2 2 2 2 2 3 3 3 4 3 1 2 5 5 4 4 5 5 5 4
2 3 2 2 1 1 2 2 2 2 1 1 1 1 1 1 1 1 2 3 3 2 2 3 3 4 5 5 4 2 1 5 5 6 6 5 4 3
2 2 2 2 1 1 1 1 1 1 2 1 1 1 1 1 2 2 2 1 3 3 3 3 3 4 5 4 4 2 2 1 3 5 7 6 6 5
2 2 1 1 1 1 1 1 1 1 1 0 1 1 1 2 2 2 3 3 3 3 4 3 2 3 4 4 5 4 4 3 2 3 3 5 6 7
2 1 1 1 1 1 1 1 1 1 1 1 1 1 2 2 2 2 2 3 3 4 4 4 3 3 4 4 5 5 5 6 4 3 2 3 5 7
Wind_Direction
246 237 246 250 252 253 247 250 264 275 273 220 219 239 201 132 105 185 142 124 138 143 148 162 178 203 233 239 237 232 236 239 241 239 238 240 238 240
252 264 262 259 252 253 245 246 253 262 274 296 234 259 18 127 120 145 125 126 121 123 116 108 96 72 33 295 257 239 242 247 248 245 244 244 245 247
246 242 253 273 272 267 261 252 250 244 251 262 241 99 89 20 105 160 139 133 112 115 106 91 80 74 66 55 34 332 261 251 254 255 254 253 252 255
254 254 258 254 256 271 269 258 249 233 230 238 251 70 76 132 137 172 102 103 94 106 109 99 89 81 75 69 60 52 44 15 325 289 281 274 264 263
257 261 269 269 270 283 288 281 258 220 196 203 202 112 75 72 126 118 100 76 80 114 123 116 99 88 82 74 65 55 45 31 18 14 1 335 313 298
4 1 337 340 332 330 311 311 312 84 142 189 168 144 132 116 137 157 106 87 47 47 87 112 121 117 98 81 70 61 53 45 33 23 18 8 2 358
91 77 61 55 41 24 8 359 359 353 104 127 92 75 66 52 355 309 84 100 86 22 27 101 130 122 121 104 74 59 58 54 46 39 33 30 27 23
105 108 99 92 80 70 54 41 26 12 5 13 32 45 21 354 350 311 256 238 160 60 341 36 56 67 65 74 67 66 61 58 55 53 52 49 44 36
121 116 100 86 94 97 96 93 64 44 26 2 26 7 5 1 317 308 38 354 8 45 333 28 46 47 62 81 84 79 71 66 62 60 58 53 42 28
108 107 107 88 64 56 87 83 68 55 49 47 39 24 22 8 336 306 205 166 149 80 344 326 37 28 45 88 103 97 90 84 76 70 62 56 41 18
89 72 83 99 46 52 102 99 95 93 85 76 66 65 57 38 355 319 261 223 160 107 52 315 339 10 64 105 116 127 126 123 112 97 73 39 355 276
104 93 73 63 50 43 109 104 100 92 96 104 98 98 85 77 48 8 336 310 335 65 65 310 309 307 287 93 67 111 125 131 144 142 123 39 344 300
110 99 83 73 63 49 49 73 69 79 108 102 96 89 86 74 63 49 16 355 359 24 26 329 321 312 311 313 13 28 14 15 77 111 126 92 5 327
99 98 96 97 83 63 65 54 16 264 103 91 83 69 61 58 56 55 52 44 32 27 5 340 331 325 313 307 328 343 344 338 346 356 3 105 201 195
88 88 103 125 127 104 80 40 184 92 79 79 73 63 56 54 56 83 94 94 93 62 40 1 335 322 309 310 318 320 325 345 353 346 341 336 327 308
123 122 125 120 118 116 130 114 70 52 46 69 68 65 63 67 53 39 42 52 68 79 70 31 352 323 316 328 316 323 330 327 334 343 332 318 315 321
139 136 128 126 120 106 101 90 86 85 72 63 64 61 57 53 42 24 1 348 11 27 49 55 43 341 332 322 323 330 326 325 334 341 301 298 303 307
155 123 117 107 106 104 101 100 90 78 69 67 65 59 50 41 39 28 7 354 357 1 4 3 345 301 247 92 3 326 323 323 321 307 296 301 304 316
143 116 110 102 97 96 93 88 84 75 52 64 67 52 40 35 32 27 9 355 357 358 0 360 346 329 317 329 53 339 325 317 309 310 313 311 312 327
117 108 108 99 89 88 89 82 80 86 83 63 53 38 15 6 9 5 27 5 349 346 353 4 3 348 335 330 325 327 322 324 327 320 317 314 318 322
101 96 100 102 99 89 84 85 85 79 60 45 56 29 9 4 6 357 12 7 316 345 350 7 11 296 284 294 299 333 5 25 329 313 314 313 316 310
105 110 106 99 100 102 114 118 114 115 136 135 59 30 19 12 8 349 348 343 346 352 344 350 337 307 312 316 317 326 333 333 286 229 267 299 316 318
105 105 116 127 120 134 132 140 139 93 49 18 16 2 1 352 336 342 344 342 348 343 332 338 340 329 327 320 319 324 328 320 316 310 298 215 226 241